timestamp,wind_dir_avg,wind_spd_max_dir,wind_spd_avg,wind_spd_gust,battery_voltage,lat,long
2017-12-23 00:00:00+00:00,300.0,304.0,8.78,11.14,,47.59359,-54.27349
2017-12-23 00:10:00+00:00,307.0,307.0,8.96,11.55,,47.59359,-54.27349
2017-12-23 00:20:00+00:00,300.0,302.0,7.34,8.69,,47.59359,-54.27349
2017-12-23 00:30:00+00:00,299.0,299.0,9.11,10.54,,47.59359,-54.27349
2017-12-23 00:40:00+00:00,318.0,322.0,7.03,8.35,,47.59359,-54.27349
2017-12-23 00:50:00+00:00,299.0,296.0,7.9,9.19,,47.59359,-54.27349
2017-12-23 01:00:00+00:00,315.0,293.0,5.42,7.59,,47.59359,-54.27349
2017-12-23 01:10:00+00:00,302.0,305.0,7.11,8.23,,47.59359,-54.27349
2017-12-23 01:20:00+00:00,310.0,310.0,7.54,8.72,,47.59359,-54.27349
2017-12-23 01:30:00+00:00,281.0,280.0,7.66,9.68,,47.59359,-54.27349
2017-12-23 01:40:00+00:00,288.0,289.0,8.65,10.02,,47.59359,-54.27349
2017-12-23 01:50:00+00:00,281.0,283.0,7.4,9.15,,47.59359,-54.27349
2017-12-23 02:00:00+00:00,299.0,301.0,7.53,8.52,,47.59359,-54.27349
2017-12-23 02:10:00+00:00,283.0,289.0,6.45,7.96,,47.59359,-54.27349
2017-12-23 02:20:00+00:00,287.0,278.0,7.79,10.61,,47.59359,-54.27349
2017-12-23 02:30:00+00:00,294.0,299.0,6.62,8.74,,47.59359,-54.27349
2017-12-23 02:40:00+00:00,285.0,276.0,6.39,7.45,,47.59359,-54.27349
2017-12-23 02:50:00+00:00,281.0,285.0,5.84,7.02,,47.59359,-54.27349
2017-12-23 03:00:00+00:00,296.0,300.0,7.52,9.87,,47.59359,-54.27349
2017-12-23 03:10:00+00:00,292.0,291.0,7.98,9.01,,47.59359,-54.27349
2017-12-23 03:20:00+00:00,291.0,287.0,8.62,9.83,,47.59359,-54.27349
2017-12-23 03:30:00+00:00,285.0,288.0,7.68,8.84,,47.59359,-54.27349
2017-12-23 03:40:00+00:00,281.0,286.0,6.78,7.85,,47.59359,-54.27349
2017-12-23 03:50:00+00:00,287.0,286.0,7.8,8.95,,47.59359,-54.27349
2017-12-23 04:00:00+00:00,295.0,299.0,8.73,9.75,,47.59359,-54.27349
2017-12-23 04:10:00+00:00,288.0,288.0,7.4,8.96,,47.59359,-54.27349
2017-12-23 04:20:00+00:00,293.0,296.0,6.95,7.87,,47.59359,-54.27349
2017-12-23 04:30:00+00:00,304.0,308.0,6.44,7.68,,47.59359,-54.27349
2017-12-23 04:40:00+00:00,298.0,305.0,6.95,8.25,,47.59359,-54.27349
2017-12-23 04:50:00+00:00,297.0,305.0,6.64,8.07,,47.59359,-54.27349
2017-12-23 05:00:00+00:00,300.0,311.0,5.81,7.41,,47.59359,-54.27349
2017-12-23 05:10:00+00:00,295.0,293.0,6.47,7.96,,47.59359,-54.27349
2017-12-23 05:20:00+00:00,307.0,317.0,5.42,6.52,,47.59359,-54.27349
2017-12-23 05:30:00+00:00,326.0,323.0,5.1,6.45,,47.59359,-54.27349
2017-12-23 05:40:00+00:00,298.0,303.0,5.23,6.66,,47.59359,-54.27349
2017-12-23 05:50:00+00:00,302.0,295.0,5.72,6.69,,47.59359,-54.27349
2017-12-23 06:00:00+00:00,303.0,308.0,6.22,7.61,,47.59359,-54.27349
2017-12-23 06:10:00+00:00,318.0,318.0,7.01,8.53,,47.59359,-54.27349
2017-12-23 06:20:00+00:00,320.0,321.0,6.19,8.32,,47.59359,-54.27349
2017-12-23 06:30:00+00:00,329.0,335.0,5.27,6.21,,47.59359,-54.27349
2017-12-23 06:40:00+00:00,325.0,321.0,4.77,6.05,,47.59359,-54.27349
2017-12-23 06:50:00+00:00,321.0,319.0,6.41,7.68,,47.59359,-54.27349
2017-12-23 07:00:00+00:00,314.0,316.0,5.53,6.87,,47.59359,-54.27349
2017-12-23 07:10:00+00:00,323.0,314.0,5.88,6.87,,47.59359,-54.27349
2017-12-23 07:20:00+00:00,313.0,316.0,5.51,6.12,,47.59359,-54.27349
2017-12-23 07:30:00+00:00,319.0,321.0,5.78,6.63,,47.59359,-54.27349
2017-12-23 07:40:00+00:00,324.0,322.0,5.8,6.94,,47.59359,-54.27349
2017-12-23 07:50:00+00:00,310.0,309.0,4.47,5.79,,47.59359,-54.27349
2017-12-23 08:00:00+00:00,312.0,322.0,4.31,5.66,,47.59359,-54.27349
2017-12-23 08:10:00+00:00,318.0,324.0,5.5,6.48,,47.59359,-54.27349
2017-12-23 08:20:00+00:00,332.0,332.0,5.08,6.01,,47.59359,-54.27349
2017-12-23 08:30:00+00:00,324.0,324.0,6.16,6.93,,47.59359,-54.27349
2017-12-23 08:40:00+00:00,319.0,317.0,4.46,5.23,,47.59359,-54.27349
2017-12-23 08:50:00+00:00,327.0,320.0,5.38,6.38,,47.59359,-54.27349
2017-12-23 09:00:00+00:00,319.0,333.0,4.9,5.71,,47.59359,-54.27349
2017-12-23 09:10:00+00:00,329.0,321.0,4.17,4.93,,47.59359,-54.27349
2017-12-23 09:20:00+00:00,325.0,315.0,5.45,6.89,,47.59359,-54.27349
2017-12-23 09:30:00+00:00,322.0,320.0,5.75,6.55,,47.59359,-54.27349
2017-12-23 09:40:00+00:00,320.0,315.0,5.79,6.67,,47.59359,-54.27349
2017-12-23 09:50:00+00:00,317.0,318.0,5.59,6.54,,47.59359,-54.27349
2017-12-23 10:00:00+00:00,319.0,326.0,4.76,5.7,,47.59359,-54.27349
2017-12-23 10:10:00+00:00,320.0,323.0,3.43,4.59,,47.59359,-54.27349
2017-12-23 10:20:00+00:00,311.0,315.0,3.93,4.56,,47.59359,-54.27349
2017-12-23 10:30:00+00:00,305.0,309.0,4.82,6.2,,47.59359,-54.27349
2017-12-23 10:40:00+00:00,303.0,309.0,5.0,5.84,,47.59359,-54.27349
2017-12-23 10:50:00+00:00,311.0,310.0,5.55,7.12,,47.59359,-54.27349
2017-12-23 11:00:00+00:00,293.0,305.0,5.68,6.19,,47.59359,-54.27349
2017-12-23 11:10:00+00:00,292.0,297.0,5.37,6.07,,47.59359,-54.27349
2017-12-23 11:20:00+00:00,303.0,309.0,5.11,5.74,,47.59359,-54.27349
2017-12-23 11:30:00+00:00,302.0,300.0,5.04,5.98,,47.59359,-54.27349
2017-12-23 11:40:00+00:00,306.0,306.0,3.55,4.37,,47.59359,-54.27349
2017-12-23 11:50:00+00:00,299.0,304.0,5.19,6.03,,47.59359,-54.27349
2017-12-23 12:00:00+00:00,308.0,307.0,5.32,6.03,,47.59359,-54.27349
2017-12-23 12:10:00+00:00,310.0,313.0,4.73,5.52,,47.59359,-54.27349
2017-12-23 12:20:00+00:00,315.0,308.0,5.0,6.2,,47.59359,-54.27349
2017-12-23 12:30:00+00:00,315.0,318.0,5.43,6.4,,47.59359,-54.27349
2017-12-23 12:40:00+00:00,317.0,321.0,4.74,6.03,,47.59359,-54.27349
2017-12-23 12:50:00+00:00,309.0,314.0,5.16,6.31,,47.59359,-54.27349
2017-12-23 13:00:00+00:00,302.0,297.0,4.93,5.87,,47.59359,-54.27349
2017-12-23 13:10:00+00:00,310.0,313.0,5.68,6.9,,47.59359,-54.27349
2017-12-23 13:20:00+00:00,307.0,308.0,5.75,6.79,,47.59359,-54.27349
2017-12-23 13:30:00+00:00,301.0,296.0,6.06,6.52,,47.59359,-54.27349
2017-12-23 13:40:00+00:00,308.0,304.0,5.58,6.58,,47.59359,-54.27349
2017-12-23 13:50:00+00:00,309.0,304.0,6.33,7.1,,47.59359,-54.27349
2017-12-23 14:00:00+00:00,306.0,308.0,6.72,7.48,,47.59359,-54.27349
2017-12-23 14:10:00+00:00,291.0,284.0,5.6,6.67,,47.59359,-54.27349
2017-12-23 14:20:00+00:00,297.0,297.0,5.98,7.42,,47.59359,-54.27349
2017-12-23 14:30:00+00:00,295.0,302.0,6.49,7.07,,47.59359,-54.27349
2017-12-23 14:40:00+00:00,295.0,298.0,4.67,6.02,,47.59359,-54.27349
2017-12-23 14:50:00+00:00,292.0,291.0,5.37,5.98,,47.59359,-54.27349
2017-12-23 15:00:00+00:00,320.0,316.0,4.63,5.44,,47.59359,-54.27349
2017-12-23 15:10:00+00:00,330.0,327.0,3.51,4.4,,47.59359,-54.27349
2017-12-23 15:20:00+00:00,299.0,305.0,3.0,3.71,,47.59359,-54.27349
2017-12-23 15:30:00+00:00,285.0,280.0,1.99,2.56,,47.59359,-54.27349
2017-12-23 15:40:00+00:00,334.0,331.0,4.45,5.48,,47.59359,-54.27349
2017-12-23 15:50:00+00:00,312.0,309.0,4.86,6.78,,47.59359,-54.27349
2017-12-23 16:00:00+00:00,319.0,317.0,3.47,4.31,,47.59359,-54.27349
2017-12-23 16:10:00+00:00,316.0,308.0,1.66,2.51,,47.59359,-54.27349
2017-12-23 16:20:00+00:00,243.0,232.0,1.2,1.93,,47.59359,-54.27349
2017-12-23 16:30:00+00:00,295.0,300.0,4.14,4.91,,47.59359,-54.27349
2017-12-23 16:40:00+00:00,266.0,263.0,3.3,4.78,,47.59359,-54.27349
2017-12-23 16:50:00+00:00,328.0,304.0,1.6,2.92,,47.59359,-54.27349
2017-12-23 17:00:00+00:00,244.0,245.0,3.7,5.91,,47.59359,-54.27349
2017-12-23 17:10:00+00:00,279.0,264.0,3.13,4.28,,47.59359,-54.27349
2017-12-23 17:20:00+00:00,285.0,288.0,3.9,4.75,,47.59359,-54.27349
2017-12-23 17:30:00+00:00,273.0,272.0,2.45,3.0,,47.59359,-54.27349
2017-12-23 17:40:00+00:00,264.0,266.0,3.47,4.22,,47.59359,-54.27349
2017-12-23 17:50:00+00:00,229.0,209.0,2.21,4.14,,47.59359,-54.27349
2017-12-23 18:00:00+00:00,259.0,257.0,2.88,3.51,,47.59359,-54.27349
2017-12-23 18:10:00+00:00,224.0,229.0,2.43,3.54,,47.59359,-54.27349
2017-12-23 18:20:00+00:00,264.0,252.0,2.76,4.24,,47.59359,-54.27349
2017-12-23 18:30:00+00:00,229.0,230.0,4.01,4.71,,47.59359,-54.27349
2017-12-23 18:40:00+00:00,217.0,221.0,3.11,4.07,,47.59359,-54.27349
2017-12-23 18:50:00+00:00,235.0,239.0,3.88,4.85,,47.59359,-54.27349
2017-12-23 19:00:00+00:00,227.0,234.0,2.47,3.32,,47.59359,-54.27349
2017-12-23 19:10:00+00:00,265.0,268.0,5.57,8.91,,47.59359,-54.27349
2017-12-23 19:20:00+00:00,273.0,271.0,4.18,5.36,,47.59359,-54.27349
2017-12-23 19:30:00+00:00,266.0,265.0,5.21,6.52,,47.59359,-54.27349
2017-12-23 19:40:00+00:00,279.0,282.0,5.92,6.72,,47.59359,-54.27349
2017-12-23 19:50:00+00:00,272.0,273.0,6.87,7.64,,47.59359,-54.27349
2017-12-23 20:00:00+00:00,271.0,272.0,6.96,8.27,,47.59359,-54.27349
2017-12-23 20:10:00+00:00,266.0,267.0,6.16,7.0,,47.59359,-54.27349
2017-12-23 20:20:00+00:00,266.0,266.0,4.86,6.18,,47.59359,-54.27349
2017-12-23 20:30:00+00:00,273.0,276.0,5.88,6.69,,47.59359,-54.27349
2017-12-23 20:40:00+00:00,279.0,291.0,3.91,4.77,,47.59359,-54.27349
2017-12-23 20:50:00+00:00,303.0,292.0,3.25,4.85,,47.59359,-54.27349
2017-12-23 21:00:00+00:00,260.0,259.0,5.56,6.51,,47.59359,-54.27349
2017-12-23 21:10:00+00:00,268.0,283.0,4.64,5.69,,47.59359,-54.27349
2017-12-23 21:20:00+00:00,270.0,289.0,2.35,4.33,,47.59359,-54.27349
2017-12-23 21:30:00+00:00,265.0,261.0,3.01,4.36,,47.59359,-54.27349
2017-12-23 21:40:00+00:00,227.0,232.0,3.37,4.84,,47.59359,-54.27349
2017-12-23 21:50:00+00:00,320.0,312.0,2.58,3.18,,47.59359,-54.27349
2017-12-23 22:00:00+00:00,306.0,295.0,3.86,5.18,,47.59359,-54.27349
2017-12-23 22:10:00+00:00,302.0,298.0,2.47,2.8,,47.59359,-54.27349
2017-12-23 22:20:00+00:00,316.0,328.0,2.8,3.95,,47.59359,-54.27349
2017-12-23 22:30:00+00:00,293.0,285.0,1.64,2.25,,47.59359,-54.27349
2017-12-23 22:40:00+00:00,279.0,255.0,3.1,6.09,,47.59359,-54.27349
2017-12-23 22:50:00+00:00,301.0,302.0,3.08,4.32,,47.59359,-54.27349
2017-12-23 23:00:00+00:00,321.0,319.0,1.91,2.61,,47.59359,-54.27349
2017-12-23 23:10:00+00:00,331.0,350.0,0.43,1.07,,47.59359,-54.27349
2017-12-23 23:20:00+00:00,334.0,318.0,0.63,1.1,,47.59359,-54.27349
2017-12-23 23:30:00+00:00,252.0,249.0,0.3,0.76,,47.59359,-54.27349
2017-12-23 23:40:00+00:00,154.0,153.0,1.07,1.42,,47.59359,-54.27349
2017-12-23 23:50:00+00:00,115.0,125.0,0.48,0.81,,47.59359,-54.27349
